Home   Weather   Paradise   Past weeks

Flag for Canada Past Weather in Paradise, Newfoundland and Labrador, Canada — Yesterday and Last 2 Weeks

Now
28 °F

Snow flurries. Overcast.


Feels Like: 17 °F
Forecast: 19 / 28 °F
Wind: 14 mph from Northeast

Location: St. John's

Current Time: Jan 18, 2017 at 4:48:31 pm

Latest Report: Jan 18, 2017 at 3:30 pm


Visibility: 12 mi

Pressure: 30.05 "Hg

Humidity: 80%

Dew Point: 23 °F

Location of ParadiseLocation

Past Weather in Paradise — Graph

°F

Paradise Temperature Yesterday

Maximum temperature yesterday: 28 °F (at 10:30 am)
Minimum temperature yesterday: 5 °F (at 12:30 am)
Average temperature yesterday: 21 °F

High & Low Weather Summary for the Past Weeks

 TemperatureHumidityPressure
High46 °F (Jan 8, 4:30 pm)100% (Jan 5, 3:30 am)30.90 "Hg (Jan 5, 3:30 am)
Low5 °F (Jan 16, 10:30 pm)48% (Jan 14, 5:30 am)29.35 "Hg (Jan 5, 12:30 pm)
Average26 °F82%30.05 "Hg
* Reported Jan 3 3:30 pm — Jan 18 3:30 pm, Paradise, Weather by CustomWeather, © 2017

Note: Actual official high and low records may vary slightly from our data, if they occured in-between our weather recording intervals... More about our weather records

Advertising

Paradise Weather History for the Previous 24 Hours

Scroll right to see more
 ConditionsComfort  
Time TempWeatherWind HumidityBarometerVisibility
3:30 pm
Wed, Jan 18
28 °FSnow flurries. Overcast.14 mph80%30.05 "Hg12 mi
3:09 pm28 °FSnow flurries. Overcast.16 mph74%30.04 "Hg15 mi
1:30 pm28 °FPartly sunny.18 mph80%30.01 "Hg15 mi
12:30 pm30 °FPartly sunny.18 mph75%29.99 "Hg15 mi
11:30 am30 °FPartly sunny.17 mph80%29.98 "Hg15 mi
11:11 am28 °FPartly sunny.14 mph93%29.97 "Hg15 mi
10:30 am28 °FSnow flurries. Overcast.17 mph86%29.98 "Hg2 mi
10:04 am27 °FSnow showers. Ice fog.17 mph93%29.97 "Hg1 mi
9:30 am27 °FSnow flurries. Overcast.13 mph93%29.97 "Hg2 mi
8:30 am27 °FSnow flurries. Overcast.18 mph93%29.93 "Hg2 mi
7:30 am27 °FSnow flurries. Overcast.21 mph93%29.88 "Hg3 mi
6:30 am23 °FSnow flurries. Overcast.14 mph86%29.84 "Hg5 mi
5:30 am23 °FPassing clouds.13 mph80%29.83 "Hg15 mi
4:30 am23 °FPassing clouds.13 mph86%29.81 "Hg15 mi
3:30 am23 °FMostly cloudy.12 mph86%29.80 "Hg15 mi
2:30 am21 °FSnow flurries. Mostly cloudy.14 mph93%29.77 "Hg6 mi
1:30 am23 °FSnow flurries. Overcast.18 mph86%29.75 "Hg3 mi
12:45 am23 °FSnow flurries. Overcast.15 mph86%29.75 "Hg2 mi
12:20 am21 °FSnow flurries. Overcast.8 mph93%29.75 "Hg3 mi
11:30 pm
Tue, Jan 17
21 °FSnow flurries. Passing clouds.10 mph86%29.76 "Hg12 mi
11:17 pm21 °FSnow flurries. Passing clouds.12 mph86%29.76 "Hg12 mi
10:30 pm19 °FPassing clouds.9 mph86%29.76 "Hg15 mi
9:40 pm16 °FPassing clouds.12 mph86%29.77 "Hg15 mi
9:30 pm18 °FPassing clouds.13 mph86%29.77 "Hg15 mi
8:30 pm19 °FSnow flurries. Partly cloudy.13 mph79%29.77 "Hg10 mi
7:51 pm21 °FSnow flurries. Overcast.8 mph80%29.78 "Hg2 mi
6:30 pm18 °FPassing clouds.8 mph79%29.77 "Hg15 mi
5:30 pm21 °FPassing clouds.10 mph74%29.76 "Hg15 mi
4:30 pm25 °FPartly cloudy.13 mph74%29.75 "Hg15 mi
Weather by CustomWeather, © 2017

See weather overviewHow to use our weather pages